Location: Samoth
(37.3328°N, 88.7876°W)
Time: 03:59:42
(UTC+00:00)

Envisat - Pass Details

Date: 22 September 2021
Orbit: 764 x 766 km, 98.2° (Epoch: 15 October)

Event Time Altitude Azimuth Distance (km) Brightness Sun altitude
Rises 10:51:07 0° 15° (NNE) 3,237 6.6 -11.1°
Reaches altitude 10° 10:53:27 10° 19° (NNE) 2,306 5.9 -10.7°
Maximum altitude 10:58:30 66° 101° (ESE) 834 3.5 -9.7°
Drops below altitude 10° 11:03:31 10° 184° (S) 2,291 5.4 -8.7°
Sets 11:05:49 0° 187° (S) 3,213 6.1 -8.3°
